Погода в Каргополе

Россия / Республика Татарстан     54°59′52″N   49°55′23″E
темп.,
°C
ветер,
м/с
пор.,
м/с
влажн.,
%
обл.,
%
осадки,
мм/ч
давл.,
гПа
погр.,
м
17 мая, пн
пн1700:00+18ю34519 0.0 101645
03:00+17ю45545 0.0 101659
06:00+19ююз27638 0.0 1017180
09:00+24ююз575019 0.0 1017428
12:00+29юз57355 0.0 10171024
15:00+30юз46345 0.0 10172350
18:00+26юз35540 0.0 101687
21:00+21ююз33511 0.0 101717
18 мая, вт
вт1800:00+19зюз12705 0.0 101712
03:00+17всв34705 0.0 101757
06:00+19в35745 0.0 1018150
09:00+25в44570 0.0 1018563
12:00+28в33465 0.0 10181164
15:00+28всв54451 0.0 10171729
18:00+24всв49615 0.0 1017280
21:00+20в613595 0.0 1018308
19 мая, ср
ср1900:00+18в513617 0.0 1018322
03:00+15в5137013 0.0 1019295
06:00+17в512745 0.0 1019362
09:00+21в79550 0.0 1019811
12:00+24вюв79450 0.0 10181329
15:00+25вюв68440 0.0 10181632
18:00+23вюв49600 0.0 1017263
21:00+17в412735 0.0 1018217
20 мая, чт
чт2000:00+16вюв412690 0.0 1018243
03:00+14вюв413690 0.0 1019268
06:00+16юв614675 0.0 1019446
09:00+21юв79510 0.0 1018882
12:00+23юв810425 0.0 10181822
15:00+24юв711430 0.0 10161900
18:00+20вюв511540 0.0 1015404
21:00+16вюв4126471 0.0 1014222
21 мая, пт
пт2100:00+15вюв513624 0.0 1013343
03:00+14юв51264100 0.1 1013297
06:00+14юв3785100 1.1 1013307
09:00+14юз5796100 2.5 1013460
12:00+20ююз786769 2.9 10151327
15:00+22юз68527 4.0 10142084
18:00+18ююз487097 0.1 1015199
21:00+15ююз347581 0.1 101759